Regional Weather Roundup
Issued by NWS Northern Indiana

Home | Current Version | Previous Version | Text Only | Print | Product List | Glossary Off
Versions: 1 2 3 4 5 6 7 8 9 10 11 12 13 14 15 16 17 18 19 20 21 22 23 24 25 26 27 28 29 30 31 32 33 34 35 36 37 38 39 40 41 42 43 44 45 46 47 48 49 50

000
ASUS43 KIWX 090810
RWRIWX

KIWX WEATHER ROUNDUP
NATIONAL WEATHER SERVICE NORTHERN INDIANA
300 AM EST TUE FEB 09 2016

NOTE: "FAIR" INDICATES FEW OR NO CLOUDS BELOW 12,000 FEET WITH NO
SIGNIFICANT WEATHER AND/OR OBSTRUCTIONS TO VISIBILITY.

* THESE STATIONS ARE NOT UNDER NWS QUALITY CONTROL. THEY ALSO MAY NOT
  REPORT WEATHER SUCH AS PRECIPITATION OR FOG.

INZ001>027-090900-
NORTHERN INDIANA

CITY           SKY/WX    TMP DP  RH WIND       PRES   REMARKS
GARY*          FLURRIES  24  18  78 W12       29.73S WCI  12
VALPARAISO     LGT SNOW  22  18  85 W14       29.70S WCI   9
MICHIGAN CITY* LGT SNOW  25  23  93 W10       29.70S WCI  15
LAPORTE*       FLURRIES  26  25  94 NW9G20    29.68S WCI  17
KNOX*          CLOUDY    25  23  93 W8        29.69S WCI  16
SOUTH BEND     FLURRIES  25  23  92 W14       29.65S WCI  13
GOSHEN         LGT SNOW  27  23  85 W17       29.63F FOG     WCI  14
MONTICELLO*    CLOUDY    23  17  75 W10       29.71S WCI  13
LOGANSPORT*    CLOUDY    25  18  74 W12G17    29.70F WCI  14
ROCHESTER*     LGT SNOW  28  21  74 W7        29.68S WCI  21
WARSAW*        FLURRIES  27  23  86 W13       29.65S WCI  16
ANGOLA*        CLOUDY    27  25  93 W10       29.58F WCI  17
FORT WAYNE     FLURRIES  28  22  78 W16       29.64F WCI  16
HUNTINGTON*    LGT SNOW  24  19  81 W13G20    29.65F WCI  12
PERU/GRISSOM   FLURRIES  25  21  86 W12       29.66F WCI  14
MARION*        CLOUDY    24  16  73 W16       29.68F WCI  10

$$
INZ028>050-090900-
CENTRAL INDIANA

CITY           SKY/WX    TMP DP  RH WIND       PRES   REMARKS
LAFAYETTE      CLOUDY    21  16  81 W14       29.74S WCI   8
KOKOMO*        CLOUDY    25  19  80 W16       29.68F WCI  12
MUNCIE*        CLOUDY    24  19  81 W12       29.67F WCI  13
INDIANAPOLIS   FLURRIES  21  17  84 W14       29.72S WCI   8

$$
MIZ043>046-050>051-056>058-064>065-071>073-077>080-090900-
SOUTHWEST LOWER MICHIGAN

CITY           SKY/WX    TMP DP  RH WIND       PRES   REMARKS
BATTLE CREEK   CLOUDY    30  27  88 W7        29.58S WCI  23
BENTON HARBOR  LGT SNOW  31  28  89 NW7G20    29.63S FOG     WCI  24
COLDWATER*     CLOUDY    29  27  94 W6        29.58S WCI  23
HILLSDALE*     CLOUDY    28  27  96 W10       29.55F WCI  19
HOLLAND        CLOUDY    30  27  88 NW7       29.62R WCI  23
GRAND RAPIDS   CLOUDY    32  28  85 NW14      29.59R WCI  22
KALAMAZOO      CLOUDY    31  27  85 W3        29.58S
STURGIS*       LGT SNOW  27  25  92 W8        29.58F WCI  19
THREE RIVERS*  LGT SNOW  29  27  92 W5        29.59F WCI  24

$$
OHZ001>008-015>018-024>025-090900-
NORTHWEST OHIO

CITY           SKY/WX    TMP DP  RH WIND       PRES   REMARKS
DEFIANCE       CLOUDY    30  23  75 W10       29.61F WCI  21
FINDLAY        CLOUDY    30  25  81 W13       29.59F WCI  20
TOLEDO EXPRESS CLOUDY    30  25  81 W12       29.58S WCI  20
TOLEDO METCALF CLOUDY    32  26  78 W13       29.58F WCI  22
LIMA           CLOUDY    27  23  85 W18       29.61S WCI  14

$$
AND FOR LAKE MICHIGAN COASTAL AND OPEN LAKE BUOY OBSERVATIONS

STATION/POSITION TEMP    WIND        PRES    VSBY  WAVE
                 AIR SEA DIR/SP/G                  HT/PER
                 (F)     (DEG/KT/KT) (MB)    (MI)  (FT/S)
CALUMET HARBOR    21     280/  7/ 14 1006.1F
MICHIGAN CITY     25     270/ 21/ 23   N/A
BURNS HARBOR      25     290/ 14/ 19 1006.8S
SAINT JOSEPH      31     300/ 16/ 19 1004.7S

$$
&&



USA.gov is the U.S. government's official web portal to all federal, state and local government web resources and services.